Other Public Products
Issued by NWS Grand Forks, ND

Home | Current Version | Previous Version | Text Only | Print | Product List | Glossary On
Versions: 1 2 3 4 5 6 7 8 9 10 11 12 13 14 15 16 17 18 19 20 21 22 23 24 25 26 27 28 29 30 31 32 33 34 35 36 37 38 39 40 41 42 43 44 45 46 47 48 49 50
000
FPUS83 KFGF 230231
OPUFGF
PRAIRIE TO PINES WEATHER ROUNDUP
NATIONAL WEATHER SERVICE EASTERN NORTH DAKOTA/GRAND FORKS ND
800 PM CST MON JAN 22 2018

 **SATELLITE DATA USED TO AUGMENT SKY COVER AT AUTOMATED STATIONS**
 *****  WEATHER ACROSS EASTERN NORTH DAKOTA  *****

CITY           SKY/WX    TMP DP  RH WIND       PRES   REMARKS
GRAND FORKS    CLOUDY    25  19  78 NE7       30.08S WCI  17
GRND FORKS AFB CLOUDY    24  19  80 E7        30.07S WCI  16
GRND FORKS NWS   N/A     25 N/A N/A NE3         N/A
BUXTON           N/A     24  23  99 N10         N/A  WCI  13
DEVILS LAKE    CLOUDY    20  18  92 E9        30.05F WCI   9
FARGO          CLOUDY    25  20  81 N15       30.03S WCI  13
WAHPETON ARPT  CLOUDY    27  21  80 N13G22    30.01S WCI  16
$$

 *****  WEATHER ACROSS CENTRAL AND WESTERN NORTH DAKOTA  *****

CITY           SKY/WX    TMP DP  RH WIND       PRES   REMARKS
JAMESTOWN      CLOUDY    21  20  96 N8        30.03S WCI  11
BISMARCK       CLOUDY    23  20  88 W3        30.05S FOG
MINOT          CLOUDY    19  16  88 S9        29.99F FOG     WCI   8
MINOT AFB      CLOUDY    18  16  93 S10       29.98F FOG     WCI   6
GARRISON         N/A     16  14  92 SE6       30.01F WCI   7
WILLISTON      FAIR      22  18  85 S3        29.98S
DICKINSON      FAIR      24  17  74 W13       29.96S WCI  12
HETTINGER      FAIR      20  16  84 NW5       30.00F WCI  13
$$

 *****  OTHER OBSERVATIONS NORTHEAST NORTH DAKOTA  *****

CITY           SKY/WX    TMP DP  RH WIND       PRES   REMARKS
WALHALLA       FAIR      23  23 100 CALM      30.09F
LANGDON        CLOUDY    19  21 100 SE8       30.05F WCI   9
CAVALIER         N/A     23  19  86 VRB3      30.09S
GRAFTON        CLOUDY    25  19  80 E5        30.10F WCI  19
CANDO          CLOUDY    21  21 100 SE7       30.07S WCI  13
FORT TOTTEN      N/A     20  18  91 CALM      29.95S
ROLLA          CLOUDY    19  19 100 SE9       30.02F WCI   9
RUGBY          CLOUDY    21  21 100 SE8       30.03F WCI  12
 ***** THE ABOVE OBSERVATIONS ARE NON NWS ARE NOT QUALITY
        CONTROLLED AND MAY MIS-REPORT RAIN FOR SNOW...
$$

 *****  OTHER OBSERVATIONS SOUTHEAST NORTH DAKOTA *****

CITY           SKY/WX    TMP DP  RH WIND       PRES   REMARKS
COOPERSTOWN    CLOUDY    21  19  93 NE8       30.05S WCI  12
VALLEY CITY    CLOUDY    21  21 100 N12       30.05S WCI   9
OAKES            N/A     21  21 100 N10       30.03S WCI  10
GWINNER          N/A     23  23 100 N15       30.02S WCI  10
SHEYENNE NWR     N/A     24  23  96 NE13      29.95S WCI  12
BUFFALO          N/A     23  20  88 SW10        N/A  WCI  12
WYNDMERE       NOT AVBL
 ***** THE ABOVE OBSERVATIONS ARE NON NWS ARE NOT QUALITY
       CONTROLLED AND MAY MIS-REPORT RAIN FOR SNOW...
$$

  *****  WEATHER ACROSS NORTHERN MINNESOTA  *****

CITY           SKY/WX    TMP DP  RH WIND       PRES   REMARKS
FLAG ISLAND    CLOUDY    18  12  79 N9        30.07F WCI   6
WARROAD        CLOUDY    19  16  86 N8        30.07F WCI   9
ROSEAU         CLOUDY    21  16  79 NE9       30.07S WCI  11
HALLOCK        CLOUDY    25  18  74 E3        30.09S
THF RVR FALLS  CLOUDY    22  17  81 NE10      30.05F WCI  11
HALSTAD        NOT AVBL
FOSSTON        CLOUDY    21  18  86 N9        30.02S WCI  11
BAUDETTE       CLOUDY    20  14  77 N8        30.04S WCI  10
WASKISH        CLOUDY    19  18  93 N7        30.02S WCI  10
CROOKSTON      CLOUDY    23  19  86 N8        30.07S WCI  14
$$
  *****  WEATHER ACROSS CENTRAL AND WEST MINNESOTA  *****

CITY           SKY/WX    TMP DP  RH WIND       PRES   REMARKS
BEMIDJI        CLOUDY    22  19  87 N10       29.99S WCI  11
PARK RAPIDS    CLOUDY    23  17  78 NE8G22    29.95R WCI  14
WADENA         CLOUDY    21  18  86 N15G23    29.95R WCI   8
DETROIT LAKES  CLOUDY    25  21  86 NE12G17   29.99R WCI  14
MOORHEAD       CLOUDY    25  19  80 N14       30.03S WCI  13
FERGUS FALLS   CLOUDY    25  19  80 N13       29.98R WCI  13
ELBOW LAKE     CLOUDY    25  21  83 NE13      29.96S WCI  14
MORRIS MN      CLOUDY    27  21  80 N20G28    29.94R WCI  13
STAPLES        CLOUDY    23  18  80 N15G21    29.93R WCI  10
WHEATON        CLOUDY    27  21  80 N13G20    30.01R WCI  16
$$
  *****  WEATHER ELSEWHERE ACROSS MINNESOTA  *****

CITY           SKY/WX    TMP DP  RH WIND       PRES   REMARKS
DULUTH         CLOUDY    22  16  78 N15       29.85S WCI   9
INTRNTL FALLS  CLOUDY    17  11  77 N6        30.03S WCI   9
ELY            FAIR      12  10  92 N3        29.94R
CLOQUET        CLOUDY    21  16  79 N12G21    29.86S WCI   9
BRAINERD       CLOUDY    26  19  74 N15G24    29.91R WCI  14
HIBBING        FAIR      19  13  77 N12       29.92S WCI   7
ALEXANDRIA     CLOUDY    25  20  81 N18       29.92R WCI  11
SAINT CLOUD    CLOUDY    28  21  75 N16G26    29.84R WCI  16
MINNEAPOLIS    LGT SNOW  26  26 100 N15G24    29.75R VSB 1   WCI  14
$$

  *****  WEATHER ACROSS SOUTH DAKOTA  *****

CITY           SKY/WX    TMP DP  RH WIND       PRES   REMARKS
SIOUX FALLS    CLOUDY    28  24  85 N24G33    29.87R WCI  14
BROOKINGS      CLOUDY    25  22  88 N23       29.90R WCI  10
WATERTOWN      CLOUDY    22  21  96 N22       29.93R WCI   6
HURON          CLOUDY    23  22  96 N12       30.00R WCI  12
SISSETON         N/A     25  22  88 N15       29.99R WCI  13
ABERDEEN       CLOUDY    22  21  96 N15       30.03S WCI   9
MITCHELL       CLOUDY    25  23  92 N22       29.99R WCI  10
PIERRE         CLOUDY    21  21 100 N7        30.04R FOG     WCI  12
MOBRIDGE       CLOUDY    24  21  88 N5        30.02R FOG     WCI  18
RAPID CITY     FAIR      26  17  68 NW13      30.01R WCI  15
$$

  *****  SOME WEATHER IN NEARBY STATES *****

CITY           SKY/WX    TMP DP  RH WIND       PRES   REMARKS
GLASGOW MT     FAIR      14  11  87 N6        29.99S WCI   5
GREAT FALLS MT FAIR      31  17  56 SW14      30.03S WCI  21
CHEYENNE WY    FAIR      25   9  50 NW6       30.03F WCI  18
SCOTTSBLUFF NE FAIR      22  15  75 NW13      30.07R WCI  10
OMAHA NE       LGT SNOW  30  27  88 NW23G36   29.79R BLWGSNOWWCI  17
DES MOINES IA  LGT SNOW  34  32  92 N15G26    29.54R FOG     WCI  24
DAVENPORT IA   FAIR      37  30  75 SW3       29.53R
CHICAGO IL     CLOUDY    42  36  79 W13G24    29.49R
EAU CLAIRE WI  LGT SNOW  28  26  92 N14G22    29.66R FOG     WCI  17
LA CROSSE WI   CLOUDY    35  32  88 N10       29.58R
$$

  *****  SOME NATIONAL WEATHER *****

CITY           SKY/WX    TMP DP  RH WIND       PRES   REMARKS
LA GUARDIA NY  FOG       37  35  92 NE14      30.11F VSB 1/4
RALEIGH NC     MOCLDY    56  48  74 S10       30.04S
ATLANTA GA     RAIN      62  61  96 S21G32    29.93R FOG
NEW ORLEANS LA MOCLDY    62  45  53 W6        29.99R
OKLAHOMA CITY  FAIR      42  18  37 NW16      30.04R
ALBUQUERQUE NM FAIR      36   9  32 N9        30.22R
SALT LAKE CITY CLOUDY    34  19  54 SE7       30.28S
LOS ANGELES CA FAIR      60  43  53 W13       30.16S
BOISE ID       FAIR      38  31  76 CALM      30.29S
SEATTLE WA     FAIR      42  36  79 S8        30.28F
$$

*** WEATHER ACROSS MANITOBA...SASKATCHEWAN AND ONTARIO ***
                ***ONTARIO***

CITY           SKY/WX    TMP DP  RH WIND       PRES   REMARKS
GERALDTON      FLURRIES   1  -8  66 NE12G21   30.07F WCI -15
THUNDER BAY    CLOUDY    12   3  67 N9        29.99R WCI   0
SIOUX LOOKOUT  FLURRIES   9   3  78 NE6       30.08F WCI  -1
TORONTO        LGT RAIN  34  32  93 E7        29.74F VSB 3/4
BIG TROUT LK   NOT AVBL
PICKLE LAKE    CLOUDY     0  -6  78 E7        30.16F WCI -13
DRYDEN         FLURRIES  10   7  85 NE10      30.05F WCI  -3
KENORA         FLURRIES  14  10  85 N7        30.06F WCI   4
$$
                *** MANITOBA***

CITY           SKY/WX    TMP DP  RH WIND       PRES   REMARKS
BRANDON        CLOUDY    23  19  86 SE9       30.02F WCI  13
DAUPHIN        CLOUDY    23  21  93 SE7       30.01R WCI  15
ISLAND LAKE    CLEAR     -4  -8  84 E3        30.22
PILOT MOUND      N/A     19  18  93 SE7         N/A  WCI  10
THE PAS        CLOUDY     3   0  85 E9        30.07S WCI -11
THOMPSON       PTCLDY   -13 -18  77 NE7       30.27S WCI -29
WINNIPEG       CLOUDY    23  18  80 E6        30.10F WCI  16
CHURCHILL      FLURRIES -11 -15  84 SE3       30.52S
$$
                ***SASKATCHEWAN***

CITY           SKY/WX    TMP DP  RH WIND       PRES   REMARKS
ESTEVAN        CLOUDY    14  12  92 SE5       29.93F WCI   6
KINDERSLEY     PTCLDY    21  18  86 NW7       29.90R WCI  13
LLOYDMINSTER   CLOUDY    19  18  93 W9        29.88R FOG     WCI   9
PRINCE ALBERT  FLURRIES  10   7  85 N3        29.92S
REGINA         CLEAR     19  18  93 SW7       29.87R WCI  10
YORKTON        PTCLDY    21  19  93 SE12G18   29.88F WCI   9
N. BATTLEFORD  CLOUDY    21  18  86 W6        29.92R WCI  14
LA RONGE       LGT SNOW   1  -2  85 E12       29.99S DR



USA.gov is the U.S. government's official web portal to all federal, state and local government web resources and services.